Simultaneous Nadir Overpasses (SNOs) Predictions

Prediction of SNOs between FY3D and NOAA-19 Satellite Orbit:

Table of predicted SNOs for the next 14.0 days since TLE Epoch: 1/20/2024
Index Date (FY3D) Time (FY3D) Lat,Lon (FY3D) SZA (FY3D ) Date (NOAA-19) Time (NOAA-19) Lat,Lon (NOAA-19) SZA (NOAA-19 ) Distance(km) Time Diff (sec)
1 01/27/2024 05:41:15 -76.09, -89.04 85.32 01/27/2024 05:40:02 -76.09, -89.74 85.29 18.61 73
2 01/27/2024 06:32:02 76.19, 77.90 94.79 01/27/2024 06:30:53 76.18, 77.88 94.79 1.53 69
3 01/27/2024 07:22:48 -76.22,-114.89 85.19 01/27/2024 07:21:57 -76.19,-114.83 85.21 3.34 51
4 01/27/2024 08:13:33 76.19, 52.53 94.77 01/27/2024 08:12:51 76.20, 52.47 94.79 1.93 42
5 01/27/2024 09:04:19 -76.22,-140.26 85.21 01/27/2024 09:03:55 -76.21,-140.25 85.21 0.54 24
6 01/27/2024 09:55:05 76.23, 27.00 94.80 01/27/2024 09:54:49 76.22, 27.05 94.79 2.05 16
7 01/27/2024 10:45:50 -76.22,-165.63 85.23 01/27/2024 10:45:53 -76.23,-165.67 85.21 2.27 3
8 01/27/2024 11:36:36 76.23, 1.63 94.78 01/27/2024 11:36:47 76.24, 1.63 94.79 0.97 11
9 01/27/2024 12:27:22 -76.26, 168.84 85.21 01/27/2024 12:27:51 -76.25, 168.91 85.22 2.01 29
10 01/27/2024 13:18:08 76.27, -23.91 94.81 01/27/2024 13:18:45 76.26, -23.79 94.79 3.48 37
11 01/27/2024 14:08:53 -76.25, 143.47 85.23 01/27/2024 14:09:49 -76.27, 143.50 85.22 2.02 56
12 01/27/2024 14:59:39 76.27, -49.27 94.79 01/27/2024 15:00:43 76.28, -49.20 94.79 2.04 64
13 01/27/2024 15:50:32 -76.61, 116.76 84.85 01/27/2024 15:51:40 -76.59, 119.27 84.94 64.78 68



Historial Predications of SNOs between FY3D and NOAA-19
